Tracking 22994 objects as of 8-May-2021
HD Live streaming from Space Station
objects crossing your sky now

LEASAT 4

Track LEASAT 4 now!
LEASAT 4 is classified as:


NORAD ID: 15995
Int'l Code: 1985-076D
Perigee: 36,473.7 km
Apogee: 36,529.2 km
Inclination: 12.5 °
Period: 1,472.4 minutes
Semi major axis: 42872 km
RCS: 16.7803 m2 (large)
Launch date: August 27, 1985
Source: United States (US)
Launch site: AIR FORCE EASTERN TEST RANGE (AFETR)
aabbcc
Your satellite tracking list
Your tracking list is empty




NASA's NSSDC Master Catalog

Two Line Element Set (TLE):
1 15995U 85076D   21127.45274642 -.00000123  00000-0  00000+0 0  9998
2 15995  12.4987 340.9734 0006468 354.4736 354.2688  0.97799250 99875
Source of the keplerian elements: AFSPC